Hourly Data Report for May 07, 2021

OTTAWA INTL A
ONTARIO
Current Station Operator: NAVCAN

45°19'00.000" N
75°40'00.000" W
114.90 m
6106001
71628
YOW

Download Data

Hourly Data (May 2021)
Hourly Data Report for May 7, 2021
TIME
LST
Temp Definition
°C
Dew Point Definition
°C
Rel Hum Definition
%
Precip. Amount Definition
mm

Wind Dir Definition
10's deg

Wind Spd Definition
km/h
Visibility Definition
km
Stn Press Definition
kPa
Hmdx Definition


Wind Chill Definition


Weather Definition


00:00 6.6 1.7 71   15 5 24.1 100.11     LegendNANA
01:00 6.2 0.9 69   14 4 24.1 100.07     Mostly Cloudy
02:00 7.2 1.9 69   25 3 24.1 100.06     Rain
03:00 5.4 2.1 79   19 5 24.1 100.07     LegendNANA
04:00 4.6 2.7 87   9 5 24.1 100.04     Mainly Clear
05:00 2.6 0.6 87   12 7 24.1 100.05     LegendNANA
06:00 5.2 2.7 84   12 7 24.1 100.08     LegendNANA
07:00 8.0 2.4 67   7 12 24.1 100.08     Mostly Cloudy
08:00 8.0 2.0 66   9 8 24.1 100.12     LegendNANA
09:00 9.1 2.1 61   8 8 24.1 100.10     LegendNANA
10:00 11.5 1.8 51   10 10 24.1 100.09     Mostly Cloudy
11:00 12.2 1.2 47   12 9 24.1 100.04     LegendNANA
12:00 11.1 1.2 50   19 4 24.1 100.02     LegendNANA
13:00 10.8 2.9 58   24 13 24.1 100.01     Rain Showers
14:00 11.4 1.8 51   21 10 24.1 99.98     LegendNANA
15:00 11.8 1.9 51   24 9 24.1 99.96     LegendNANA
16:00 11.2 2.8 56   23 7 24.1 99.96     Cloudy
17:00 10.3 4.4 66   30 16 24.1 99.98     LegendNANA
18:00 9.1 4.9 75   26 9 24.1 100.01     Rain
19:00 8.0 5.9 86   26 7 24.1 100.02     Rain
20:00 7.4 5.9 90   26 5 24.1 100.03     Rain
21:00 7.2 5.5 89   31 9 16.1 100.02     Rain
22:00 7.0 5.8 92   31 10 16.1 99.97     Rain
23:00 6.9 5.6 91   35 16 16.1 99.93     Rain

Notes on Data Quality.

Legend

  • E = Estimated
  • M = Missing
  • NA = Not Available*
  • [empty] = Indicates an unobserved value
Date modified: